Weather History for Limon, CO

Change the Weather History Date:

Thursday, May 2, 2013

  Actual Average Record
Temperature  
Mean Temperature 31 °F -  
Max Temperature 43 °F - 80 °F (2006)
Min Temperature 19 °F - 19 °F (2013)
Degree Days  
Heating Degree Days 34    
Month to date heating degree days 67  
Cooling Degree Days 0    
Month to date cooling degree days 0  
Moisture  
Dew Point 21 °F    
Average Humidity 68    
Maximum Humidity 100    
Minimum Humidity 36    
Precipitation  
Precipitation T in - 0.06 in (2008)
Month to date precipitation 0.22  
Year to date precipitation 2.72  
Sea Level Pressure  
Sea Level Pressure 30.64 in    
Wind  
Wind Speed 7 mph (NW)    
Max Wind Speed 16 mph    
Max Gust Speed 22 mph    
Visibility 9 miles    
Events Snow    
T = Trace of Precipitation, MM = Missing Value Source: NWS Daily Summary

Daily Weather History Graph

Daily Weather History Graph

Search for Another Location

Airport:

Trip Planner

Search our weather history database for the weather conditions in past years. The results will help you decide how hot, cold, wet, or windy it might be!

Date:

Astronomy

May. 02, 2013 Rise Set
Actual Time 5:54 AM MDT 7:49 PM MDT
Civil Twilight 5:25 AM MDT 8:18 PM MDT
Nautical Twilight 4:50 AM MDT 8:53 PM MDT
Astronomical Twilight 4:12 AM MDT 9:32 PM MDT
Moon 1:40 AM MDT (5/2) 12:43 PM MDT (5/2)
Length of Visible Light 14h 52m
Length of Day
13h 54m
Waning Gibbous, 47% of the Moon is Illuminated
May 2
Waning Gibbous
May 9
New
May 17
First Quarter
May 24
Full
May 31
Last Quarter

Hourly Weather History & Observations

Time (MDT) Temp. Windchill Dew Point Humidity Pressure Visibility Wind Dir Wind Speed Gust Speed Precip Events Conditions
12:09 AM 24.8 °F 17.9 °F 23.0 °F 93% 30.57 in 3.0 mi NNW 5.8 mph - 0.00 in Snow Light Snow
12:18 AM 24.8 °F 17.9 °F 23.0 °F 93% 30.57 in 4.0 mi North 5.8 mph - 0.00 in Snow Light Snow
12:55 AM 25.0 °F 12.6 °F 23.0 °F 92% 30.66 in 2.5 mi NNW 15.0 mph 19.6 mph 0.00 in Snow Light Snow
1:15 AM 24.8 °F 16.1 °F 23.0 °F 93% 30.57 in 3.0 mi NNW 8.1 mph - 0.00 in Snow Light Snow
1:55 AM 24.1 °F 15.2 °F 21.9 °F 91% 30.66 in 10.0 mi NNW 8.1 mph - 0.00 in   Overcast
2:55 AM 21.9 °F 11.0 °F 21.0 °F 96% 30.68 in 10.0 mi NW 10.4 mph - 0.00 in   Overcast
3:55 AM 23.0 °F 11.7 °F 21.0 °F 92% 30.68 in 10.0 mi WNW 11.5 mph - 0.00 in   Overcast
4:55 AM 21.0 °F 13.4 °F 19.0 °F 92% 30.70 in 10.0 mi WNW 5.8 mph - N/A   Mostly Cloudy
5:55 AM 21.0 °F 12.4 °F 18.0 °F 88% 30.74 in 10.0 mi North 6.9 mph - N/A   Scattered Clouds
6:55 AM 21.0 °F 14.6 °F 19.0 °F 92% 30.76 in 10.0 mi Variable 4.6 mph - N/A   Overcast
7:55 AM 24.1 °F 18.2 °F 19.9 °F 84% 30.76 in 10.0 mi NW 4.6 mph - N/A   Overcast
8:55 AM 26.1 °F 15.0 °F 19.9 °F 78% 30.76 in 10.0 mi NW 12.7 mph 19.6 mph N/A   Scattered Clouds
9:55 AM 28.0 °F 19.3 °F 21.0 °F 75% 30.76 in 10.0 mi WNW 9.2 mph 19.6 mph N/A   Clear
10:55 AM 30.0 °F 21.7 °F 23.0 °F 75% 30.75 in 10.0 mi WNW 9.2 mph - N/A   Clear
11:55 AM 33.1 °F 26.9 °F 23.0 °F 66% 30.73 in 10.0 mi Variable 6.9 mph - N/A   Clear
12:55 PM 34.0 °F 26.6 °F 23.0 °F 64% 30.70 in 10.0 mi NW 9.2 mph - N/A   Scattered Clouds
1:55 PM 37.0 °F 31.6 °F 17.1 °F 44% 30.67 in 10.0 mi NNW 6.9 mph - N/A   Clear
2:55 PM 39.0 °F 33.4 °F 21.0 °F 49% 30.63 in 10.0 mi NW 8.1 mph - N/A   Clear
3:55 PM 42.1 °F 37.7 °F 21.0 °F 43% 30.58 in 10.0 mi NW 6.9 mph - N/A   Mostly Cloudy
4:55 PM 39.9 °F 36.7 °F 17.1 °F 40% 30.57 in 10.0 mi NNW 4.6 mph - N/A   Partly Cloudy
5:55 PM 42.1 °F 38.4 °F 18.0 °F 38% 30.55 in 10.0 mi NW 5.8 mph - N/A   Clear
6:55 PM 41.0 °F 38.0 °F 18.0 °F 40% 30.54 in 10.0 mi NW 4.6 mph - N/A   Partly Cloudy
7:55 PM 35.1 °F 31.0 °F 24.1 °F 64% 30.54 in 10.0 mi NW 4.6 mph - N/A   Clear
8:55 PM 30.9 °F - 24.1 °F 76% 30.55 in 10.0 mi Calm Calm - N/A   Clear
9:55 PM 30.0 °F 26.5 °F 24.1 °F 79% 30.54 in 10.0 mi West 3.5 mph - N/A   Clear
10:55 PM 28.0 °F - 23.0 °F 81% 30.52 in 10.0 mi Calm Calm - N/A   Clear
11:55 PM 25.0 °F - 21.9 °F 88% 30.50 in 10.0 mi Calm Calm - N/A   Clear